Torna al catalogo

COSMOS 1317 DEB

LostHEO
NORAD 35512·DEBRIS·🇷🇺 Russia

Lanciato Oct 31, 1981 da Plesetsk Cosmodrome

Loading…

Prossimi Passaggi (prossime 24 ore)

TLE

ObsoletoSource: Space-Track

Epoca: Aug 21, 2011, 12:26 UTC

1 35512U 81108M   11233.51830035 -.00000392  00000-0  00000+0 0  9993
2 35512  71.0292 285.9470 5250671 117.5964   9.6083  2.01810936 40766

Traccia COSMOS 1317 DEB in tempo reale con AllMySat

Download on the App Store